Location: Madden
(51.3728°N, 114.3297°W)
Time: 01:38:46
(UTC+00:00)

Envisat - Pass Details

Date: 23 April 2024
Orbit: 762 x 764 km, 98.3° (Epoch: 24 May)

Event Time Altitude Azimuth Distance (km) Brightness Sun altitude
Rises 10:23:12 0° 20° (NNE) 3,242 7.5 -16.3°
Reaches altitude 10° 10:25:42 10° 29° (NNE) 2,310 6.7 -16.0°
Maximum altitude 10:30:23 36° 96° (E) 1,202 4.4 -15.5°
Drops below altitude 10° 10:35:01 10° 162° (SSE) 2,293 5.2 -15.0°
Enters shadow 10:36:38 - 169° (S) 2,891 5.7 -14.8°
